Bonaire, Bonaire

5:14 AM AST on September 28, 2016 (GMT -0400)
Flamingo

Weather History for TNCB - June, 2014

Change the Weather History Date:

Sunday, June 15, 2014

  Actual Average Record
Temperature  
Mean Temperature 84 °F -  
Max Temperature 87 °F 87 °F 91 °F (2005)
Min Temperature 82 °F 81 °F 80 °F (1999)
Cooling Degree Days 20    
Growing Degree Days 34 (Base 50)    
Moisture  
Dew Point 75 °F    
Average Humidity 75    
Maximum Humidity 79    
Minimum Humidity 66    
Precipitation  
Precipitation 0.00 in - - ()
Sea Level Pressure  
Sea Level Pressure 29.91 in    
Wind  
Wind Speed 17 mph ()    
Max Wind Speed 23 mph    
Max Gust Speed 33 mph    
Visibility 6.2 miles    
Events      
Averages and records for this station are not official NWS values.
T = Trace of Precipitation, MM = Missing Value Source: Averaged Metar Reports

Daily Weather History Graph

Daily Weather History Graph

Search for Another Location

Airport or City:

Trip Planner

Search our weather history database for the weather conditions in past years. The results will help you decide how hot, cold, wet, or windy it might be!

Date:

Astronomy

Jun. 15, 2014 Rise Set
Actual Time 6:08 AM AST 6:58 PM AST
Civil Twilight 5:45 AM AST 7:21 PM AST
Nautical Twilight 5:17 AM AST 7:49 PM AST
Astronomical Twilight 4:49 AM AST 8:17 PM AST
Moon 9:33 PM AST (6/15) 8:35 AM AST (6/15)
Length of Visible Light 13h 36m
Length of Day
12h 50m
Waning Gibbous, 91% of the Moon is Illuminated
Jun 15
Waning Gibbous
Jun 19
Last Quarter
Jun 27
New
Jul 5
First Quarter
Jul 12
Full

Hourly Weather History & Observations

Time (AST) Temp. Heat Index Dew Point Humidity Pressure Visibility Wind Dir Wind Speed Gust Speed Precip Events Conditions
12:00 AM 82.4 °F 89.5 °F 75.2 °F 79% 29.92 in - ENE 19.6 mph - N/A   Unknown
1:00 AM 82.4 °F 89.5 °F 75.2 °F 79% 29.95 in - ENE 18.4 mph - N/A   Unknown
2:00 AM 82.4 °F 89.5 °F 75.2 °F 79% 29.92 in - ENE 16.1 mph - N/A   Unknown
5:00 AM 82.4 °F 89.5 °F 75.2 °F 79% 29.89 in - ENE 18.4 mph - N/A   Unknown
6:00 AM 82.4 °F 89.5 °F 75.2 °F 79% 29.92 in - ENE 18.4 mph - N/A   Unknown
7:00 AM 82.4 °F 89.5 °F 75.2 °F 79% 29.92 in - ENE 17.3 mph - N/A   Unknown
8:00 AM 84.2 °F 92.3 °F 75.2 °F 74% 29.92 in - ENE 19.6 mph - N/A   Unknown
9:00 AM 84.2 °F 92.3 °F 75.2 °F 74% 29.95 in 6.2 mi ENE 21.9 mph - N/A   Scattered Clouds
10:00 AM 87.8 °F 97.6 °F 75.2 °F 66% 29.95 in 6.2 mi ENE 21.9 mph - N/A   Scattered Clouds
11:00 AM 84.2 °F 92.3 °F 75.2 °F 74% 29.95 in 6.2 mi East 19.6 mph - N/A   Scattered Clouds
12:00 PM 86.0 °F 95.1 °F 75.2 °F 70% 29.95 in 6.2 mi East 20.7 mph 33.4 mph N/A   Scattered Clouds
1:00 PM 87.8 °F 97.6 °F 75.2 °F 66% 29.95 in 6.2 mi ENE 21.9 mph - N/A   Scattered Clouds
2:00 PM 87.8 °F 97.6 °F 75.2 °F 66% 29.92 in 6.2 mi East 19.6 mph - N/A   Scattered Clouds
3:00 PM 86.0 °F 95.1 °F 75.2 °F 70% 29.89 in 6.2 mi East 23.0 mph - N/A   Scattered Clouds
4:00 PM 87.8 °F 97.6 °F 75.2 °F 66% 29.86 in 6.2 mi ENE 23.0 mph - N/A   Scattered Clouds
5:00 PM 84.2 °F 92.3 °F 75.2 °F 74% 29.86 in 6.2 mi ENE 23.0 mph - N/A   Scattered Clouds
6:00 PM 84.2 °F 92.3 °F 75.2 °F 74% 29.86 in 6.2 mi ENE 20.7 mph - N/A   Scattered Clouds
7:00 PM 82.4 °F 89.5 °F 75.2 °F 79% 29.86 in 6.2 mi ENE 18.4 mph - N/A   Partly Cloudy
8:00 PM 82.4 °F 89.5 °F 75.2 °F 79% 29.89 in 6.2 mi ENE 20.7 mph - N/A   Partly Cloudy
9:00 PM 82.4 °F 89.5 °F 75.2 °F 79% 29.92 in - ENE 18.4 mph - N/A   Unknown
10:00 PM 82.4 °F 89.5 °F 75.2 °F 79% 29.92 in - ENE 19.6 mph - N/A   Unknown
11:00 PM 82.4 °F 89.5 °F 75.2 °F 79% 29.95 in - East 18.4 mph - N/A   Unknown